Location: Unspecified
(47.9110°N, 14.3980°E)
Time: 15:49:43
(UTC+00:00)

Iridium 4 Rocket - Pass Details

Date: 06 August 2020
Orbit: 586 x 903 km, 86.9° (Epoch: 19 September)

Event Time Altitude Azimuth Distance (km) Brightness Sun altitude
Exits shadow 22:08:19 51° 253° (WSW) 802 3.5 -24.3°
Maximum altitude 22:08:44 53° 276° (W) 778 3.6 -24.4°
Drops below altitude 10° 22:12:57 10° 354° (N) 1,967 6.7 -24.5°
Sets 22:15:09 0° 359° (N) 2,853 7.8 -24.6°
